GW5644 Weather Reports


Display with metric or nautical units.
time (UTC)temp
F
wind
direction
speed
MPH
gust
MPH
rain 1hr
in
rain 24hr
in
rain mn
in
humidity
%
barometer
mb
20260507061526 60 109 0.0 0.0 0.00 0.00 0.00 77 1017.7
20260507060028 61 109 0.0 0.0 0.00 0.00 0.00 77 1017.8
20260507054526 61 109 0.0 2.0 0.00 0.00 0.00 76 1017.7
20260507053018 62 212 0.0 0.0 0.00 0.00 0.00 76 1017.7
20260507051526 62 212 0.0 2.0 0.00 0.00 0.00 76 1017.5
20260507050036 62 204 0.0 0.0 0.00 0.00 0.00 74 1017.4
20260507044510 63 204 0.0 0.0 0.00 0.00 0.00 74 1017.5
20260507043018 64 204 0.0 2.0 0.00 0.00 0.00 73 1017.5
20260507041530 64 196 1.0 2.0 0.00 0.00 0.00 73 1017.4
20260507040025 64 190 0.0 2.0 0.00 0.00 0.00 72 1017.3
20260507034530 64 190 1.0 4.0 0.00 0.00 0.00 71 1017.1
20260507033016 65 179 0.0 3.0 0.00 0.00 0.00 70 1017.0
20260507031529 65 219 1.0 4.0 0.00 0.00 0.00 69 1016.8
20260507030022 65 196 1.0 4.0 0.00 0.00 0.00 69 1016.4
20260507024530 66 217 0.0 3.0 0.00 0.00 0.00 68 1016.4
20260507023028 66 209 2.0 4.0 0.00 0.00 0.00 67 1016.3
20260507021512 67 195 3.0 7.0 0.00 0.00 0.00 65 1016.2
20260507020026 68 205 1.0 4.0 0.00 0.00 0.00 62 1016.1
20260507014538 68 222 2.0 7.0 0.00 0.00 0.00 60 1016.0
20260507013026 69 234 2.0 5.0 0.00 0.00 0.00 59 1015.9
20260507011529 70 216 2.0 6.0 0.00 0.00 0.00 58 1015.8
20260507010018 71 206 2.0 5.0 0.00 0.00 0.00 57 1015.8
20260507004532 72 252 3.0 6.0 0.00 0.00 0.00 55 1015.8
20260507003031 72 284 2.0 7.0 0.00 0.00 0.00 54 1015.7
20260507001527 72 171 3.0 7.0 0.00 0.00 0.00 55 1015.6
20260507000024 72 230 5.0 9.0 0.00 0.00 0.00 55 1015.6
20260506234533 73 191 3.0 8.0 0.00 0.00 0.00 52 1015.5
20260506233022 74 168 3.0 7.0 0.00 0.00 0.00 51 1015.5
20260506231534 74 277 2.0 8.0 0.00 0.00 0.00 49 1015.5
20260506230030 75 238 4.0 9.0 0.00 0.00 0.00 46 1015.5
20260506224516 75 257 3.0 7.0 0.00 0.00 0.00 45 1015.8
20260506223037 75 269 2.0 8.0 0.00 0.00 0.00 47 1016.0
20260506221528 74 248 2.0 7.0 0.00 0.00 0.00 47 1016.2
20260506220030 74 299 1.0 8.0 0.00 0.00 0.00 48 1016.3
20260506214529 73 234 1.0 9.0 0.00 0.00 0.00 51 1016.4
20260506213028 74 232 1.0 8.0 0.00 0.00 0.00 50 1016.6
20260506211532 73 188 3.0 7.0 0.00 0.00 0.00 52 1016.9
20260506210030 73 236 3.0 6.0 0.00 0.00 0.00 53 1017.1
20260506204529 74 166 2.0 9.0 0.00 0.00 0.00 52 1017.2
20260506203031 73 243 3.0 8.0 0.00 0.00 0.00 53 1017.1
20260506201532 72 248 3.0 7.0 0.00 0.00 0.00 56 1017.4
20260506200011 73 193 3.0 8.0 0.00 0.00 0.00 54 1017.5
20260506194510 73 257 2.0 8.0 0.00 0.00 0.00 54 1017.7
20260506193017 72 304 2.0 8.0 0.00 0.00 0.00 57 1017.8
20260506191526 72 188 0.0 7.0 0.00 0.00 0.00 55 1017.9
20260506190006 71 237 1.0 8.0 0.00 0.00 0.00 57 1018.0
20260506184512 69 220 2.0 6.0 0.00 0.00 0.00 59 1018.1
20260506183030 70 227 1.0 5.0 0.00 0.00 0.00 56 1018.2
20260506181525 69 228 2.0 7.0 0.00 0.00 0.00 56 1018.3
20260506180028 71 239 1.0 4.0 0.00 0.00 0.00 53 1018.4
20260506174510 69 220 1.0 6.0 0.00 0.00 0.00 54 1018.3
20260506173012 69 5 0.0 3.0 0.00 0.00 0.00 56 1018.4
20260506171526 68 234 2.0 4.0 0.00 0.00 0.00 57 1018.5
20260506170033 67 61 1.0 2.0 0.00 0.00 0.00 57 1018.6
20260506164528 66 134 1.0 4.0 0.00 0.00 0.00 61 1018.6
20260506163015 65 196 2.0 6.0 0.00 0.00 0.00 64 1018.5
20260506161516 64 207 1.0 4.0 0.00 0.00 0.00 66 1018.5
20260506160022 65 175 2.0 4.0 0.00 0.00 0.00 64 1018.5
20260506154532 64 101 0.0 2.0 0.00 0.00 0.00 67 1018.7
20260506153010 62 223 0.0 2.0 0.00 0.00 0.00 70 1018.7
20260506151513 62 203 0.0 2.0 0.00 0.00 0.00 69 1018.7
20260506150020 62 217 0.0 2.0 0.00 0.00 0.00 70 1018.6
20260506144523 60 194 0.0 0.0 0.00 0.00 0.00 70 1018.6
20260506143032 59 139 0.0 0.0 0.00 0.00 0.00 71 1018.6
20260506141512 56 130 0.0 0.0 0.00 0.00 0.00 77 1018.6
20260506140026 53 164 0.0 0.0 0.00 0.00 0.00 82 1018.5
20260506134523 51 164 0.0 0.0 0.00 0.00 0.00 85 1018.4
20260506133024 49 164 0.0 0.0 0.00 0.00 0.00 86 1018.2
20260506131533 49 164 0.0 0.0 0.00 0.00 0.00 86 1017.9
20260506130021 50 164 0.0 0.0 0.00 0.00 0.00 85 1017.8
20260506124524 50 164 0.0 0.0 0.00 0.00 0.00 86 1017.8
20260506123030 51 164 0.0 0.0 0.00 0.00 0.00 85 1017.6
20260506121530 51 164 0.0 0.0 0.00 0.00 0.00 85 1017.7
20260506120039 51 164 0.0 0.0 0.00 0.00 0.00 85 1017.5
20260506114518 52 164 0.0 0.0 0.00 0.00 0.00 85 1017.5
20260506113030 52 164 0.0 0.0 0.00 0.01 0.00 86 1017.6
20260506111525 52 164 0.0 0.0 0.00 0.01 0.00 85 1017.5
20260506110028 52 164 0.0 0.0 0.00 0.01 0.00 84 1017.5
20260506104528 52 164 0.0 0.0 0.00 0.01 0.00 85 1017.7
20260506103018 53 164 0.0 0.0 0.00 0.01 0.00 85 1017.6
20260506101528 53 164 0.0 0.0 0.00 0.01 0.00 86 1017.5
20260506100028 53 164 0.0 0.0 0.00 0.01 0.00 89 1017.5
20260506094531 53 164 0.0 0.0 0.00 0.01 0.00 89 1017.5
20260506093020 53 164 0.0 0.0 0.00 0.01 0.00 89 1017.6
20260506091524 53 164 0.0 0.0 0.00 0.01 0.00 89 1017.6
20260506090041 53 164 0.0 0.0 0.00 0.01 0.00 88 1017.7
20260506084529 53 164 0.0 0.0 0.00 0.01 0.00 88 1017.8
20260506083028 54 164 0.0 0.0 0.00 0.01 0.00 87 1017.9
20260506081522 54 164 0.0 0.0 0.00 0.01 0.00 86 1017.9
20260506073030 55 164 0.0 0.0 0.00 0.01 0.00 84 1017.9
20260506071526 56 164 0.0 0.0 0.00 0.01 0.00 84 1018.0